Regional Weather Roundup
Issued by NWS

Home | Current Version | Previous Version | Text Only | Print | Product List | Glossary On
Versions: 1 2 3 4 5 6 7 8 9 10 11 12 13 14 15 16 17 18 19 20 21 22 23 24 25 26 27 28 29 30 31 32 33 34 35 36 37 38 39 40 41 42 43 44 45 46 47 48 49 50
000
ASUS43 KTOP 210408
RWRKS

WEATHER ROUNDUP FOR KANSAS
NATIONAL WEATHER SERVICE GOODLAND KS
1000 PM CST FRI JAN 20 2017

NOTE:  "FAIR" INDICATES FEW OR NO CLOUDS BELOW 12,000 FEET WITH NO
SIGNIFICANT WEATHER AND/OR OBSTRUCTIONS TO VISIBILITY.

KSZ001>006-013>018-027>032-041>047-210500-
NORTHWEST KANSAS

CITY           SKY/WX    TMP DP  RH WIND       PRES   REMARKS
GOODLAND       PTCLDY    35  33  92 W13       29.44S WCI  26
HAYS           CLOUDY    37  35  92 W8        29.45R
HILL CITY      LGT RAIN  40  38  93 W9        29.43S
RUSSELL        CLOUDY    41  38  89 W8        29.42R
$$

KSZ061>065-074>080-084>089-210500-
SOUTHWEST KANSAS

CITY           SKY/WX    TMP DP  RH WIND       PRES   REMARKS
DODGE CITY     CLEAR     36  33  89 W12       29.49S WCI  28
ELKHART          N/A     32  23  69 S9          N/A
GARDEN CITY    CLEAR     31  30  96 W5        29.49F FOG
GREAT BEND     CLOUDY    42  40  92 W9        29.46R
LIBERAL        CLEAR     30  25  80 SW7       29.52R
PRATT          CLEAR     37  33  88 W16       29.48R WCI  27
$$

KSZ066>073-081>083-090>101-210500-
SOUTHEAST KANSAS

CITY           SKY/WX    TMP DP  RH WIND       PRES   REMARKS
CHANUTE        CLEAR     37  34  89 SE3       29.47F
COFFEYVILLE    CLEAR     53  37  54 S12       29.48R
HUTCHINSON     FOG       35  33  92 S5        29.43S VSB 1/2
MEDICINE LODGE   N/A     39  37  92 W8        29.48R
NEWTON         MOCLDY    37  37 100 S6        29.43F FOG
PARSONS        CLEAR     49  38  65 S10       29.48R
WICHITA INTL   PTCLDY    32  32 100 SW5       29.44R FOG
WICHITA JABRA  CLEAR     37  37 100 SW5       29.44R FOG
WICHITA MCCONL CLEAR     38  37  96 CALM      29.44R
WINFIELD       CLEAR     40  36  86 S7        29.46R
$$

KSZ007>012-019>026-033>040-048>060-102>105-210500-
NORTHEAST KANSAS

CITY           SKY/WX    TMP DP  RH WIND       PRES   REMARKS
CONCORDIA      FOG       41  41 100 S3        29.40F VSB 1/2
EMPORIA        CLEAR     35  35 100 S3        29.44S FOG
LAWRENCE       CLOUDY    46  45  96 N7        29.43F
MANHATTAN      CLOUDY    45  43  93 SW6       29.42S
MARYSVILLE     DRIZZLE   45  43  93 CALM      29.40F
OLATHE IND     CLOUDY    46  43  89 SE3       29.46S
OLATHE EXE     MOCLDY    45  44  97 CALM      29.47R
SALINA         FOG       37  36  96 CALM      29.43S VSB 1
TOPEKA BILLARD CLOUDY    43  41  93 CALM      29.44F
TOPEKA FORBES  CLOUDY    42  41  96 N3        29.44F FOG
$$



USA.gov is the U.S. government's official web portal to all federal, state and local government web resources and services.